Location: Gollag?dem
(16.8053°N, 80.8024°E)
Time: 18:13:03
(UTC+00:00)

Cosmos 1980 Rocket - Pass Details

Date: 13 August 2020
Orbit: 829 x 850 km, 71.0° (Epoch: 17 September)

Event Time Altitude Azimuth Distance (km) Brightness Sun altitude
Rises 16:03:43 0° 339° (NNW) 3,389 6.0 -40.1°
Reaches altitude 10° 16:06:10 10° 337° (NNW) 2,450 5.1 -40.6°
Enters shadow 16:07:40 19° 335° (NNW) 1,899 4.4 -40.9°
